KC4LW Weather Reports


Display with metric or nautical units.
time (UTC)temp
F
wind
direction
speed
MPH
gust
MPH
rain 1hr
in
rain 24hr
in
rain mn
in
humidity
%
barometer
mb
20260507194552 85 275 5.0 15.0 0.00 0.00 0.00 65 1011.7
20260507193058 85 300 5.0 12.0 0.00 0.00 0.00 64 1011.8
20260507191552 84 262 5.0 19.0 0.00 0.00 0.00 65 1012.4
20260507190058 84 280 4.0 15.0 0.00 0.00 0.00 67 1012.8
20260507184600 84 5 6.0 15.0 0.00 0.00 0.00 66 1012.9
20260507183101 86 310 4.0 14.0 0.00 0.00 0.00 63 1013.0
20260507181601 86 334 4.0 12.0 0.00 0.00 0.00 64 1013.3
20260507180057 86 311 4.0 11.0 0.00 0.00 0.00 62 1013.3
20260507174557 87 267 5.0 15.0 0.00 0.00 0.00 54 1013.6
20260507173102 87 304 3.0 9.0 0.00 0.00 0.00 54 1013.8
20260507171604 87 296 5.0 11.0 0.00 0.00 0.00 55 1013.8
20260507164603 88 250 6.0 11.0 0.00 0.00 0.00 56 1014.0
20260507163059 87 297 4.0 11.0 0.00 0.00 0.00 59 1014.1
20260507161555 86 251 6.0 16.0 0.00 0.00 0.00 63 1014.1
20260507160056 86 330 4.0 12.0 0.00 0.00 0.00 64 1014.0
20260507154556 86 300 5.0 15.0 0.00 0.00 0.00 64 1014.4
20260507153050 86 299 6.0 12.0 0.00 0.00 0.00 64 1014.1
20260507151550 85 292 3.0 8.0 0.00 0.00 0.00 67 1014.0
20260507150051 83 250 2.0 4.0 0.00 0.00 0.00 70 1013.8
20260507144555 82 219 2.0 5.0 0.00 0.00 0.00 71 1013.5
20260507143058 81 229 2.0 6.0 0.00 0.00 0.00 73 1013.4
20260507141555 81 227 2.0 8.0 0.00 0.00 0.00 75 1013.6
20260507140049 79 240 2.0 7.0 0.00 0.00 0.00 77 1013.6
20260507134554 78 198 2.0 8.0 0.00 0.00 0.00 78 1013.8
20260507133118 76 273 2.0 6.0 0.00 0.00 0.00 82 1013.9
20260507131555 76 229 3.0 6.0 0.00 0.00 0.00 83 1014.0
20260507130110 75 247 1.0 7.0 0.00 0.00 0.00 85 1014.0
20260507124556 74 288 2.0 4.0 0.00 0.00 0.00 87 1014.0
20260507123053 73 0 1.0 6.0 0.00 0.00 0.00 88 1014.1
20260507121606 72 304 2.0 7.0 0.00 0.00 0.00 87 1014.0
20260507114634 70 169 2.0 7.0 0.00 0.00 0.00 91 1013.4
20260507113053 70 197 2.0 5.0 0.00 0.00 0.00 91 1013.4
20260507111558 70 225 0.0 4.0 0.00 0.00 0.00 91 1013.5
20260507110052 70 0 0.0 2.0 0.00 0.00 0.00 90 1013.5
20260507104550 70 0 0.0 2.0 0.00 0.00 0.00 89 1013.2
20260507103053 70 227 0.0 2.0 0.00 0.00 0.00 89 1013.6
20260507101550 70 0 0.0 1.0 0.00 0.00 0.00 88 1013.5
20260507100129 70 0 0.0 2.0 0.00 0.00 0.00 87 1013.4
20260507094559 71 224 0.0 3.0 0.00 0.00 0.00 86 1013.4
20260507093055 71 231 0.0 4.0 0.00 0.00 0.00 86 1013.3
20260507091549 71 234 2.0 7.0 0.00 0.00 0.00 85 1013.0
20260507090049 72 218 2.0 8.0 0.00 0.00 0.00 84 1012.7
20260507084558 72 203 2.0 7.0 0.00 0.00 0.00 84 1012.2
20260507083053 72 215 2.0 5.0 0.00 0.00 0.00 83 1012.2
20260507081558 72 227 2.0 7.0 0.00 0.00 0.00 83 1012.1
20260507080117 72 0 1.0 5.0 0.00 0.00 0.00 82 1012.1
20260507074552 72 0 0.0 2.0 0.00 0.00 0.00 82 1012.2
20260507073057 72 0 0.0 2.0 0.00 0.00 0.00 81 1012.4
20260507071550 72 216 0.0 3.0 0.00 0.00 0.00 80 1012.9
20260507070053 73 225 1.0 4.0 0.00 0.00 0.00 79 1013.0
20260507064554 73 0 0.0 4.0 0.00 0.00 0.00 79 1013.1
20260507063104 73 220 2.0 5.0 0.00 0.00 0.00 78 1013.5
20260507061552 73 224 2.0 7.0 0.00 0.00 0.00 78 1013.8
20260507060055 73 0 2.0 5.0 0.00 0.00 0.00 77 1013.8
20260507054553 73 204 0.0 4.0 0.00 0.00 0.00 77 1014.0
20260507053052 74 190 1.0 6.0 0.00 0.00 0.00 77 1014.1
20260507051552 74 0 0.0 6.0 0.00 0.00 0.00 77 1014.2
20260507050057 74 192 1.0 5.0 0.00 0.00 0.00 76 1014.2
20260507044549 74 175 1.0 5.0 0.00 0.00 0.00 76 1014.2
20260507043053 74 232 0.0 4.0 0.00 0.00 0.00 76 1014.4
20260507041554 74 164 0.0 4.0 0.00 0.00 0.00 76 1014.4
20260507040056 74 0 0.0 2.0 0.00 0.00 0.00 76 1014.6
20260507034556 74 0 0.0 2.0 0.00 0.00 0.00 75 1014.8
20260507033054 74 229 0.0 2.0 0.00 0.00 0.00 75 1014.5
20260507031552 74 0 0.0 6.0 0.00 0.00 0.00 75 1014.9
20260507030054 74 209 0.0 3.0 0.00 0.00 0.00 76 1014.5
20260507024608 75 0 0.0 2.0 0.00 0.00 0.00 77 1014.6
20260507023059 75 279 0.0 2.0 0.00 0.00 0.00 77 1014.5
20260507021556 76 0 0.0 3.0 0.00 0.00 0.00 76 1014.6
20260507020109 76 239 1.0 4.0 0.00 0.00 0.00 75 1014.6
20260507014605 77 219 2.0 6.0 0.00 0.00 0.00 74 1014.5
20260507013057 77 196 1.0 8.0 0.00 0.00 0.00 74 1014.0
20260507011555 77 241 1.0 5.0 0.00 0.00 0.00 74 1014.1
20260507004605 77 91 1.0 11.0 0.00 0.00 0.00 73 1014.0
20260507003057 77 0 1.0 10.0 0.00 0.00 0.00 72 1013.8
20260507001555 78 170 1.0 8.0 0.00 0.00 0.00 71 1013.7
20260507000054 78 0 2.0 7.0 0.00 0.00 0.00 70 1013.3
20260506234555 79 82 2.0 8.0 0.00 0.00 0.00 68 1013.4
20260506233110 80 49 3.0 8.0 0.00 0.00 0.00 67 1013.3
20260506231600 80 69 3.0 10.0 0.00 0.00 0.00 68 1013.2
20260506230059 81 142 2.0 11.0 0.00 0.00 0.00 68 1013.3
20260506224554 81 139 2.0 9.0 0.00 0.00 0.00 70 1013.3
20260506223053 82 89 2.0 8.0 0.00 0.00 0.00 71 1013.4
20260506221553 82 96 3.0 12.0 0.00 0.00 0.00 71 1013.4
20260506220054 82 101 4.0 15.0 0.00 0.00 0.00 70 1013.3
20260506214555 83 109 3.0 9.0 0.00 0.00 0.00 69 1013.2
20260506213113 83 137 2.0 13.0 0.00 0.00 0.00 69 1013.3
20260506211553 82 242 4.0 11.0 0.00 0.00 0.00 71 1013.3
20260506210054 83 167 3.0 12.0 0.00 0.00 0.00 71 1013.6
20260506204553 83 71 2.0 14.0 0.00 0.00 0.00 72 1013.7
20260506203054 83 74 6.0 12.0 0.00 0.00 0.00 71 1013.6
20260506201552 84 162 2.0 10.0 0.00 0.00 0.00 71 1013.6
20260506200051 83 117 2.0 9.0 0.00 0.00 0.00 72 1013.8